• In France
  • List of Countries
  • For 7 days
  • Water Temperature
  • Satellite Maps
  • Weather Map
  • Weather Widgets
  • user-avatar
    Login

    Hourly Weather Pasto

    Today, 18 December, Monday

    Time Temperature Precipitation Wind Pressure Humidity
    00:00 +8°C° 0 mm 2 mps 547 mmHg 84%
    01:00 +8°C° 0 mm 2 mps 547 mmHg 83%
    02:00 +8°C° 0 mm 2 mps 547 mmHg 83%
    03:00 +8°C° 0 mm 2 mps 547 mmHg 82%
    04:00 +8°C° 0 mm 2 mps 547 mmHg 82%
    05:00 +9°C° 0 mm 2 mps 547 mmHg 81%
    06:00 +10°C° 0 mm 1 mps 548 mmHg 79%
    07:00 +12°C° 0 mm 2 mps 549 mmHg 77%
    08:00 +13°C° 0 mm 2 mps 549 mmHg 71%
    09:00 +15°C° 0 mm 2 mps 550 mmHg 65%
    10:00 +16°C° 0 mm 2 mps 551 mmHg 59%
    11:00 +17°C° 0 mm 3 mps 551 mmHg 56%
    12:00 +18°C° 0 mm 3 mps 551 mmHg 54%
    13:00 +19°C° 0 mm 3 mps 551 mmHg 51%
    14:00 +18°C° 0.1 mm 3 mps 551 mmHg 54%
    15:00 +18°C° 0.1 mm 2 mps 550 mmHg 57%
    16:00 +17°C° 0.1 mm 2 mps 549 mmHg 60%
    17:00 +15°C° 0.2 mm 2 mps 548 mmHg 70%
    18:00 +13°C° 0.2 mm 1 mps 547 mmHg 79%
    19:00 +10°C° 0.2 mm 1 mps 547 mmHg 89%
    20:00 +10°C° 0.1 mm 1 mps 547 mmHg 89%
    21:00 +10°C° 0.1 mm 1 mps 547 mmHg 89%
    22:00 +10°C° 0.1 mm 1 mps 548 mmHg 89%
    23:00 +9°C° 0 mm 1 mps 548 mmHg 89%

    Tomorrow, 19 December, Tuesday

    Time Temperature Precipitation Wind Pressure Humidity
    00:00 +9°C° 0 mm 1 mps 548 mmHg 88%
    01:00 +9°C° 0 mm 1 mps 547 mmHg 88%
    02:00 +8°C° 0 mm 2 mps 547 mmHg 87%
    03:00 +8°C° 0 mm 2 mps 547 mmHg 86%
    04:00 +8°C° 0 mm 2 mps 546 mmHg 85%
    05:00 +9°C° 0 mm 1 mps 547 mmHg 82%
    06:00 +10°C° 0 mm 1 mps 548 mmHg 80%
    07:00 +10°C° 0 mm 1 mps 548 mmHg 78%
    08:00 +13°C° 0 mm 2 mps 549 mmHg 70%
    09:00 +15°C° 0 mm 2 mps 551 mmHg 62%
    10:00 +17°C° 0 mm 2 mps 552 mmHg 54%
    11:00 +18°C° 0.1 mm 2 mps 552 mmHg 52%
    12:00 +19°C° 0.1 mm 3 mps 552 mmHg 51%
    13:00 +19°C° 0.1 mm 3 mps 552 mmHg 49%
    14:00 +18°C° 0.3 mm 3 mps 551 mmHg 54%
    15:00 +17°C° 0.3 mm 2 mps 550 mmHg 58%
    16:00 +16°C° 0.3 mm 2 mps 549 mmHg 63%
    17:00 +14°C° 0.3 mm 2 mps 548 mmHg 72%
    18:00 +12°C° 0.3 mm 1 mps 547 mmHg 81%
    19:00 +10°C° 0.3 mm 1 mps 546 mmHg 91%
    20:00 +10°C° 0.2 mm 1 mps 547 mmHg 91%
    21:00 +10°C° 0.2 mm 1 mps 547 mmHg 91%
    22:00 +10°C° 0.2 mm 1 mps 548 mmHg 91%
    23:00 +10°C° 0.1 mm 1 mps 548 mmHg 90%

    Day after tomorrow, 20 December, Wednesday

    Time Temperature Precipitation Wind Pressure Humidity
    00:00 +9°C° 0.1 mm 1 mps 547 mmHg 89%
    01:00 +9°C° 0.1 mm 1 mps 547 mmHg 88%
    02:00 +9°C° 0 mm 1 mps 547 mmHg 87%
    03:00 +9°C° 0 mm 1 mps 546 mmHg 87%
    04:00 +9°C° 0 mm 1 mps 546 mmHg 86%
    05:00 +9°C° 0 mm 1 mps 546 mmHg 84%
    06:00 +10°C° 0 mm 1 mps 547 mmHg 81%
    07:00 +10°C° 0 mm 1 mps 548 mmHg 79%
    08:00 +13°C° 0 mm 1 mps 549 mmHg 71%
    09:00 +15°C° 0 mm 2 mps 551 mmHg 62%
    10:00 +17°C° 0 mm 2 mps 552 mmHg 54%
    11:00 +17°C° 0 mm 2 mps 551 mmHg 54%
    12:00 +18°C° 0 mm 2 mps 551 mmHg 54%
    13:00 +18°C° 0 mm 2 mps 551 mmHg 54%
    14:00 +17°C° 0.3 mm 2 mps 550 mmHg 57%
    15:00 +17°C° 0.3 mm 2 mps 549 mmHg 60%
    16:00 +16°C° 0.3 mm 2 mps 548 mmHg 64%
    17:00 +14°C° 0.3 mm 1 mps 548 mmHg 73%
    18:00 +13°C° 0.3 mm 1 mps 547 mmHg 82%
    19:00 +10°C° 0.3 mm 0 mps 546 mmHg 91%
    20:00 +11°C° 0.1 mm 1 mps 547 mmHg 92%
    21:00 +11°C° 0.1 mm 1 mps 547 mmHg 92%
    22:00 +10°C° 0.1 mm 1 mps 548 mmHg 93%
    23:00 +10°C° 0.1 mm 1 mps 548 mmHg 92%

    21 December, Thursday

    Time Temperature Precipitation Wind Pressure Humidity
    00:00 +10°C° 0.1 mm 1 mps 547 mmHg 92%
    01:00 +10°C° 0.1 mm 1 mps 547 mmHg 92%
    02:00 +10°C° 0.1 mm 1 mps 547 mmHg 92%
    03:00 +10°C° 0.1 mm 1 mps 546 mmHg 92%
    04:00 +10°C° 0.1 mm 1 mps 546 mmHg 92%
    05:00 +10°C° 0 mm 1 mps 546 mmHg 90%
    06:00 +9°C° 0 mm 0 mps 547 mmHg 88%
    07:00 +10°C° 0 mm 0 mps 548 mmHg 85%
    08:00 +13°C° 0 mm 1 mps 549 mmHg 77%
    09:00 +15°C° 0 mm 1 mps 550 mmHg 69%
    10:00 +17°C° 0 mm 2 mps 551 mmHg 60%
    11:00 +16°C° 0.1 mm 2 mps 551 mmHg 62%
    12:00 +16°C° 0.1 mm 2 mps 550 mmHg 63%
    13:00 +16°C° 0.1 mm 2 mps 549 mmHg 65%
    14:00 +16°C° 0.2 mm 2 mps 549 mmHg 67%
    15:00 +15°C° 0.2 mm 2 mps 548 mmHg 69%
    16:00 +15°C° 0.2 mm 2 mps 548 mmHg 71%
    17:00 +14°C° 0.2 mm 1 mps 547 mmHg 79%
    18:00 +13°C° 0.2 mm 1 mps 547 mmHg 86%
    19:00 +11°C° 0.2 mm 1 mps 547 mmHg 94%
    20:00 +10°C° 0.3 mm 0 mps 547 mmHg 94%
    21:00 +10°C° 0.3 mm 0 mps 548 mmHg 95%
    22:00 +10°C° 0.3 mm 0 mps 548 mmHg 95%
    23:00 +10°C° 0.1 mm 0 mps 548 mmHg 95%

    22 December, Friday

    Time Temperature Precipitation Wind Pressure Humidity
    00:00 +10°C° 0.1 mm 0 mps 548 mmHg 95%
    01:00 +10°C° 0.1 mm 0 mps 547 mmHg 96%
    02:00 +9°C° 0.1 mm 0 mps 547 mmHg 95%
    03:00 +9°C° 0.1 mm 0 mps 547 mmHg 95%
    04:00 +9°C° 0.1 mm 0 mps 546 mmHg 94%
    05:00 +9°C° 0 mm 0 mps 547 mmHg 93%
    06:00 +10°C° 0 mm 0 mps 548 mmHg 91%
    07:00 +10°C° 0 mm 0 mps 548 mmHg 90%
    08:00 +13°C° 0 mm 1 mps 549 mmHg 82%
    09:00 +14°C° 0 mm 1 mps 550 mmHg 74%
    10:00 +16°C° 0 mm 1 mps 551 mmHg 67%
    11:00 +16°C° 0.1 mm 2 mps 550 mmHg 67%
    12:00 +16°C° 0.1 mm 2 mps 550 mmHg 67%
    13:00 +16°C° 0.1 mm 2 mps 549 mmHg 67%
    14:00 +16°C° 0.4 mm 2 mps 549 mmHg 71%
    15:00 +15°C° 0.4 mm 2 mps 548 mmHg 75%
    16:00 +15°C° 0.4 mm 2 mps 548 mmHg 78%
    17:00 +14°C° 0.4 mm 1 mps 547 mmHg 84%
    18:00 +13°C° 0.4 mm 1 mps 547 mmHg 89%
    19:00 +12°C° 0.4 mm 1 mps 547 mmHg 95%
    20:00 +10°C° 0.3 mm 0 mps 548 mmHg 95%
    21:00 +10°C° 0.3 mm 0 mps 548 mmHg 95%
    22:00 +10°C° 0.3 mm 0 mps 548 mmHg 96%
    23:00 +10°C° 0.1 mm 0 mps 548 mmHg 95%

    23 December, Saturday

    Time Temperature Precipitation Wind Pressure Humidity
    00:00 +10°C° 0.1 mm 0 mps 548 mmHg 95%
    01:00 +10°C° 0.1 mm 0 mps 548 mmHg 94%
    02:00 +10°C° 0 mm 0 mps 547 mmHg 94%
    03:00 +9°C° 0 mm 0 mps 547 mmHg 94%
    04:00 +9°C° 0 mm 0 mps 547 mmHg 94%
    05:00 +9°C° 0 mm 0 mps 547 mmHg 93%
    06:00 +10°C° 0 mm 0 mps 548 mmHg 91%
    07:00 +10°C° 0 mm 0 mps 548 mmHg 89%
    08:00 +12°C° 0 mm 1 mps 549 mmHg 82%
    09:00 +14°C° 0 mm 1 mps 550 mmHg 76%
    10:00 +15°C° 0 mm 1 mps 551 mmHg 69%
    11:00 +16°C° 0.1 mm 2 mps 550 mmHg 68%
    12:00 +16°C° 0.1 mm 2 mps 550 mmHg 67%
    13:00 +16°C° 0.1 mm 2 mps 549 mmHg 66%
    14:00 +16°C° 0.1 mm 2 mps 549 mmHg 69%
    15:00 +15°C° 0.1 mm 2 mps 548 mmHg 72%
    16:00 +15°C° 0.1 mm 2 mps 547 mmHg 75%
    17:00 +14°C° 0.2 mm 1 mps 547 mmHg 82%
    18:00 +13°C° 0.2 mm 1 mps 547 mmHg 89%
    19:00 +11°C° 0.2 mm 1 mps 547 mmHg 95%
    20:00 +11°C° 0.5 mm 1 mps 547 mmHg 95%
    21:00 +11°C° 0.5 mm 1 mps 547 mmHg 95%
    22:00 +10°C° 0.5 mm 0 mps 548 mmHg 95%
    23:00 +11°C° 0.4 mm 1 mps 548 mmHg 95%
    Show more